George, South Africa

8:23 PM SAST on May 26, 2017 (GMT +0200)
George

Weather History for FAGG - July, 2013

Change the Weather History Date:

Monday, July 8, 2013

  Actual Average Record
Temperature  
Mean Temperature 55 °F -  
Max Temperature 66 °F 64 °F 82 °F (1999)
Min Temperature 44 °F 44 °F 38 °F (2014)
Degree Days  
Heating Degree Days 10    
Growing Degree Days 5 (Base 50)    
Moisture  
Dew Point 46 °F    
Average Humidity 74    
Maximum Humidity 94    
Minimum Humidity 47    
Precipitation  
Precipitation 0.00 in - - ()
Sea Level Pressure  
Sea Level Pressure 30.23 in    
Wind  
Wind Speed 5 mph ()    
Max Wind Speed 10 mph    
Max Gust Speed -    
Visibility 9.7 miles    
Events      
Averages and records for this station are not official NWS values.
T = Trace of Precipitation, MM = Missing Value Source: Averaged Metar Reports

Daily Weather History Graph

Daily Weather History Graph

Search for Another Location

Airport or City:

Trip Planner

Search our weather history database for the weather conditions in past years. The results will help you decide how hot, cold, wet, or windy it might be!

Date:

Astronomy

Jul. 08, 2013 Rise Set
Actual Time 7:35 AM SAST 5:35 PM SAST
Civil Twilight 7:08 AM SAST 6:03 PM SAST
Nautical Twilight 6:37 AM SAST 6:34 PM SAST
Astronomical Twilight 6:06 AM SAST 7:04 PM SAST
Moon 7:21 AM SAST (7/8) 6:00 PM SAST (7/8)
Length of Visible Light 10h 54m
Length of Day
9h 59m
New Moon, 0% of the Moon is Illuminated
Jul 8
New Moon
Jul 16
First Quarter
Jul 22
Full
Jul 29
Last Quarter
Aug 6
New

Hourly Weather History & Observations

Time (SAST) Temp. Windchill Dew Point Humidity Pressure Visibility Wind Dir Wind Speed Gust Speed Precip Events Conditions
12:00 AM 46.4 °F 45.2 °F 42.8 °F 87% 30.18 in - WNW 3.5 mph - N/A   Clear
1:00 AM 46.4 °F 44.3 °F 42.8 °F 87% 30.15 in - NNW 4.6 mph - N/A   Clear
2:00 AM 49 °F - 43 °F 71% 30.18 in 31 mi NNW 6.9 mph - -  
2:00 AM 48.2 °F - 42.8 °F 82% 30.15 in - NNW 4.6 mph - N/A   Clear
3:00 AM 46.4 °F 45.2 °F 41.0 °F 81% 30.15 in - NW 3.5 mph - N/A   Clear
4:00 AM 46.4 °F 44.3 °F 41.0 °F 81% 30.15 in - North 4.6 mph - N/A   Clear
5:00 AM 50 °F - 41 °F 62% 30.16 in 12 mi West 3.5 mph - -  
5:00 AM 50.0 °F - 41.0 °F 71% 30.15 in - West 3.5 mph - N/A   Clear
6:00 AM 48.2 °F - 41.0 °F 76% 30.15 in - North 3.5 mph - N/A   Clear
7:00 AM 50.0 °F - 41.0 °F 71% 30.18 in - NW 3.5 mph - N/A   Clear
8:00 AM 50 °F - 41 °F 63% 30.25 in 12 mi NW 8.1 mph - -  
8:00 AM 50.0 °F - 41.0 °F 71% 30.24 in - NW 8.1 mph - N/A   Clear
9:00 AM 55.4 °F - 46.4 °F 72% 30.27 in - WNW 6.9 mph - N/A   Clear
10:00 AM 60.8 °F - 50.0 °F 68% 30.27 in - WNW 4.6 mph - N/A   Clear
11:00 AM 64 °F - 49 °F 47% 30.30 in 12 mi West 10.4 mph - -  
11:00 AM 64.4 °F - 48.2 °F 56% 30.27 in - West 10.4 mph - N/A   Clear
12:00 PM 66.2 °F - 50.0 °F 56% 30.27 in 6.2 mi WSW 8.1 mph - N/A   Partly Cloudy
1:00 PM 64.4 °F - 51.8 °F 64% 30.27 in - SSW 9.2 mph - N/A   Clear
2:00 PM 63 °F - 51 °F 55% 30.26 in 12 mi South 9.2 mph - -   Scattered Clouds
2:00 PM 62.6 °F - 50.0 °F 63% 30.24 in 6.2 mi South 9.2 mph - N/A   Partly Cloudy
3:00 PM 62.6 °F - 50.0 °F 63% 30.24 in 6.2 mi SSE 6.9 mph - N/A   Partly Cloudy
4:00 PM 60.8 °F - 51.8 °F 72% 30.24 in 6.2 mi SE 3.5 mph - N/A   Partly Cloudy
5:00 PM 59 °F - 52 °F 72% 30.26 in 12 mi SE 4.6 mph - -   Clear
5:00 PM 59.0 °F - 51.8 °F 77% 30.24 in - SE 4.6 mph - N/A   Clear
6:00 PM 57.2 °F - 51.8 °F 82% 30.24 in - East 3.5 mph - N/A   Clear
7:00 PM 53.6 °F - 50.0 °F 88% 30.27 in - North 3.5 mph - N/A   Clear
8:00 PM 52 °F - 49 °F 85% 30.28 in 12 mi NNE 2.3 mph - -   Clear
8:00 PM 51.8 °F - 48.2 °F 88% 30.27 in - NNE 2.3 mph - N/A   Clear
9:00 PM 50.0 °F - 48.2 °F 94% 30.30 in - NW 3.5 mph - N/A   Clear
10:00 PM 48.2 °F - 46.4 °F 93% 30.30 in - North 4.6 mph - N/A   Clear
11:00 PM 50.0 °F - 46.4 °F 87% 30.33 in - NNW 2.3 mph - N/A   Clear